| time (UTC) | temp F | wind direction | speed knots | gust knots | rain 1hr in | rain 24hr in | rain mn in | humidity % | barometer mb |
| 20260903221535 | 73 | 250 | 9.6 | 20.0 | 0.00 | 0.07 | 0.00 | 34 | 1008.2 |
| 20260903220039 | 74 | 217 | 11.3 | 21.7 | 0.00 | 0.07 | 0.00 | 31 | 1008.1 |
| 20260903214544 | 74 | 219 | 16.5 | 20.9 | 0.00 | 0.07 | 0.00 | 31 | 1008.0 |
| 20260903213045 | 74 | 256 | 11.3 | 22.6 | 0.00 | 0.07 | 0.00 | 32 | 1008.0 |
| 20260903211539 | 74 | 227 | 13.0 | 25.2 | 0.00 | 0.07 | 0.00 | 33 | 1007.9 |
| 20260903210043 | 74 | 209 | 12.2 | 20.9 | 0.00 | 0.07 | 0.00 | 33 | 1007.9 |
| 20260903204534 | 74 | 221 | 12.2 | 20.9 | 0.00 | 0.07 | 0.00 | 33 | 1007.9 |
| 20260903203036 | 72 | 241 | 12.2 | 20.9 | 0.00 | 0.07 | 0.00 | 35 | 1008.1 |
| 20260903201544 | 71 | 216 | 12.2 | 18.2 | 0.00 | 0.07 | 0.00 | 36 | 1008.1 |
| 20260903200035 | 71 | 211 | 12.2 | 21.7 | 0.00 | 0.07 | 0.00 | 37 | 1008.2 |
| 20260903194533 | 71 | 227 | 15.6 | 26.1 | 0.00 | 0.07 | 0.00 | 36 | 1008.2 |
| 20260903193038 | 71 | 229 | 16.5 | 24.3 | 0.00 | 0.07 | 0.00 | 35 | 1008.2 |
| 20260903191537 | 71 | 240 | 17.4 | 25.2 | 0.00 | 0.07 | 0.00 | 36 | 1008.3 |
| 20260903190036 | 71 | 209 | 16.5 | 27.8 | 0.00 | 0.07 | 0.00 | 37 | 1008.1 |
| 20260903184534 | 70 | 240 | 18.2 | 25.2 | 0.00 | 0.07 | 0.00 | 37 | 1008.0 |
| 20260903183039 | 70 | 234 | 13.9 | 22.6 | 0.00 | 0.07 | 0.00 | 38 | 1008.0 |
| 20260903181537 | 69 | 236 | 16.5 | 25.2 | 0.00 | 0.07 | 0.00 | 37 | 1008.2 |
| 20260903180042 | 69 | 232 | 14.8 | 21.7 | 0.00 | 0.07 | 0.00 | 43 | 1008.3 |
| 20260903174534 | 67 | 241 | 11.3 | 20.0 | 0.00 | 0.07 | 0.00 | 45 | 1008.2 |
| 20260903173037 | 66 | 278 | 10.4 | 14.8 | 0.00 | 0.07 | 0.00 | 50 | 1008.4 |
| 20260903171535 | 64 | 236 | 6.1 | 13.9 | 0.00 | 0.07 | 0.00 | 54 | 1008.6 |
| 20260903170046 | 64 | 240 | 8.7 | 14.8 | 0.00 | 0.07 | 0.00 | 55 | 1008.3 |
| 20260903164538 | 62 | 263 | 6.1 | 12.2 | 0.00 | 0.07 | 0.00 | 60 | 1008.5 |
| 20260903163037 | 59 | 242 | 6.1 | 9.6 | 0.00 | 0.07 | 0.00 | 63 | 1008.5 |
| 20260903161536 | 57 | 249 | 5.2 | 8.7 | 0.00 | 0.07 | 0.00 | 68 | 1008.4 |
| 20260903160038 | 56 | 264 | 4.3 | 8.7 | 0.00 | 0.07 | 0.00 | 71 | 1008.4 |
| 20260903154543 | 55 | 246 | 6.1 | 10.4 | 0.00 | 0.07 | 0.00 | 73 | 1008.5 |
| 20260903153046 | 54 | 236 | 7.8 | 11.3 | 0.00 | 0.07 | 0.00 | 74 | 1008.5 |
| 20260903151537 | 54 | 230 | 7.0 | 11.3 | 0.00 | 0.07 | 0.00 | 75 | 1008.6 |
| 20260903150035 | 53 | 242 | 6.1 | 12.2 | 0.00 | 0.07 | 0.00 | 76 | 1008.4 |
| 20260903144541 | 52 | 230 | 7.8 | 11.3 | 0.00 | 0.07 | 0.00 | 77 | 1008.6 |
| 20260903143045 | 51 | 229 | 7.0 | 11.3 | 0.00 | 0.07 | 0.00 | 77 | 1008.4 |
| 20260903141542 | 51 | 215 | 7.8 | 13.9 | 0.00 | 0.07 | 0.00 | 77 | 1008.2 |
| 20260903140038 | 50 | 203 | 7.8 | 12.2 | 0.00 | 0.07 | 0.00 | 78 | 1008.0 |
| 20260903134536 | 50 | 233 | 6.1 | 12.2 | 0.00 | 0.07 | 0.00 | 77 | 1007.9 |
| 20260903133035 | 49 | 217 | 7.0 | 10.4 | 0.00 | 0.07 | 0.00 | 78 | 1007.8 |
| 20260903131535 | 49 | 202 | 6.1 | 12.2 | 0.00 | 0.07 | 0.00 | 78 | 1007.6 |
| 20260903130038 | 48 | 207 | 6.1 | 7.8 | 0.00 | 0.07 | 0.00 | 80 | 1007.4 |
| 20260903124535 | 46 | 188 | 6.1 | 7.8 | 0.00 | 0.07 | 0.00 | 81 | 1007.2 |
| 20260903123035 | 47 | 172 | 5.2 | 12.2 | 0.00 | 0.07 | 0.00 | 78 | 1006.9 |
| 20260903121534 | 49 | 214 | 8.7 | 13.9 | 0.00 | 0.07 | 0.00 | 73 | 1006.9 |
| 20260903120039 | 47 | 244 | 7.0 | 10.4 | 0.00 | 0.07 | 0.00 | 76 | 1006.9 |
| 20260903114532 | 50 | 245 | 7.8 | 13.0 | 0.00 | 0.07 | 0.00 | 72 | 1007.0 |
| 20260903113033 | 46 | 234 | 1.7 | 8.7 | 0.00 | 0.07 | 0.00 | 75 | 1007.2 |
| 20260903111546 | 51 | 252 | 6.1 | 9.6 | 0.00 | 0.07 | 0.00 | 70 | 1007.1 |
| 20260903110034 | 49 | 261 | 4.3 | 6.1 | 0.00 | 0.07 | 0.00 | 73 | 1007.3 |
| 20260903104537 | 47 | 257 | 1.7 | 3.5 | 0.00 | 0.07 | 0.00 | 76 | 1007.3 |
| 20260903103051 | 48 | 198 | 4.3 | 7.0 | 0.00 | 0.07 | 0.00 | 74 | 1007.3 |
| 20260903101534 | 48 | 229 | 2.6 | 4.3 | 0.00 | 0.07 | 0.00 | 75 | 1007.2 |
| 20260903100038 | 47 | 0 | 0.0 | 1.7 | 0.00 | 0.07 | 0.00 | 77 | 1007.1 |
| 20260903094539 | 49 | 227 | 0.0 | 2.6 | 0.00 | 0.07 | 0.00 | 75 | 1007.3 |
| 20260903093046 | 49 | 229 | 1.7 | 3.5 | 0.00 | 0.07 | 0.00 | 73 | 1006.9 |
| 20260903091539 | 49 | 242 | 1.7 | 3.5 | 0.00 | 0.07 | 0.00 | 73 | 1006.9 |
| 20260903090038 | 50 | 242 | 0.0 | 2.6 | 0.00 | 0.07 | 0.00 | 73 | 1007.0 |
| 20260903084544 | 50 | 244 | 2.6 | 7.0 | 0.00 | 0.07 | 0.00 | 73 | 1006.8 |
| 20260903083033 | 49 | 212 | 4.3 | 6.1 | 0.00 | 0.07 | 0.00 | 77 | 1006.8 |
| 20260903081535 | 48 | 198 | 3.5 | 4.3 | 0.00 | 0.07 | 0.00 | 79 | 1006.8 |
| 20260903080039 | 48 | 188 | 7.0 | 10.4 | 0.00 | 0.07 | 0.00 | 78 | 1006.8 |
| 20260903074536 | 48 | 217 | 6.1 | 8.7 | 0.00 | 0.07 | 0.00 | 79 | 1006.8 |
| 20260903073037 | 49 | 175 | 5.2 | 9.6 | 0.00 | 0.07 | 0.00 | 76 | 1006.9 |
| 20260903071534 | 49 | 205 | 7.0 | 10.4 | 0.00 | 0.07 | 0.00 | 78 | 1006.8 |
| 20260903070035 | 52 | 232 | 6.1 | 9.6 | 0.00 | 0.07 | 0.00 | 71 | 1006.8 |
| 20260903064542 | 52 | 232 | 6.1 | 8.7 | 0.00 | 0.07 | 0.00 | 73 | 1006.6 |
| 20260903063044 | 50 | 234 | 4.3 | 8.7 | 0.00 | 0.07 | 0.00 | 77 | 1006.8 |
| 20260903061537 | 51 | 207 | 6.1 | 7.8 | 0.00 | 0.07 | 0.00 | 78 | 1006.6 |
| 20260903060042 | 51 | 202 | 4.3 | 7.8 | 0.00 | 0.07 | 0.00 | 78 | 1006.9 |
| 20260903054537 | 52 | 202 | 6.1 | 12.2 | 0.00 | 0.07 | 0.07 | 77 | 1007.1 |
| 20260903053037 | 52 | 184 | 8.7 | 13.9 | 0.00 | 0.07 | 0.07 | 78 | 1007.1 |
| 20260903051536 | 51 | 208 | 6.1 | 8.7 | 0.00 | 0.07 | 0.07 | 82 | 1007.3 |
| 20260903050044 | 50 | 221 | 6.1 | 13.0 | 0.00 | 0.07 | 0.07 | 81 | 1007.3 |
| 20260903044544 | 51 | 227 | 7.0 | 9.6 | 0.00 | 0.07 | 0.07 | 80 | 1007.5 |
| 20260903043036 | 52 | 230 | 7.8 | 10.4 | 0.00 | 0.07 | 0.07 | 76 | 1007.4 |
| 20260903041542 | 54 | 222 | 7.0 | 12.2 | 0.00 | 0.07 | 0.07 | 73 | 1007.2 |
| 20260903040038 | 53 | 229 | 6.1 | 10.4 | 0.00 | 0.07 | 0.07 | 76 | 1007.6 |
| 20260903034538 | 54 | 238 | 6.1 | 12.2 | 0.00 | 0.07 | 0.07 | 74 | 1007.5 |
| 20260903033036 | 53 | 244 | 8.7 | 13.0 | 0.00 | 0.07 | 0.07 | 74 | 1007.3 |
| 20260903031538 | 55 | 240 | 8.7 | 14.8 | 0.00 | 0.07 | 0.07 | 72 | 1007.1 |
| 20260903030035 | 55 | 201 | 7.8 | 15.6 | 0.00 | 0.07 | 0.07 | 73 | 1007.3 |
| 20260903024535 | 55 | 288 | 11.3 | 16.5 | 0.00 | 0.07 | 0.07 | 73 | 1007.0 |
| 20260903023034 | 56 | 270 | 11.3 | 18.2 | 0.00 | 0.07 | 0.07 | 73 | 1006.5 |
| 20260903021536 | 57 | 246 | 13.0 | 20.0 | 0.00 | 0.07 | 0.07 | 73 | 1006.8 |
| 20260903020057 | 57 | 200 | 9.6 | 12.2 | 0.00 | 0.07 | 0.07 | 77 | 1006.8 |
| 20260903014537 | 60 | 227 | 5.2 | 8.7 | 0.00 | 0.07 | 0.07 | 70 | 1006.4 |
| 20260903013035 | 61 | 185 | 5.2 | 7.0 | 0.00 | 0.07 | 0.07 | 70 | 1007.0 |
| 20260903011538 | 62 | 171 | 3.5 | 6.1 | 0.00 | 0.07 | 0.07 | 64 | 1007.2 |
| 20260903010035 | 60 | 169 | 5.2 | 7.0 | 0.01 | 0.07 | 0.07 | 68 | 1007.2 |
| 20260903004537 | 59 | 269 | 3.5 | 7.8 | 0.02 | 0.07 | 0.07 | 72 | 1006.8 |
| 20260903003034 | 59 | 328 | 5.2 | 11.3 | 0.04 | 0.07 | 0.07 | 74 | 1006.6 |
| 20260903001552 | 59 | 318 | 1.7 | 6.1 | 0.04 | 0.07 | 0.07 | 70 | 1007.6 |
| 20260903000041 | 59 | 285 | 6.1 | 15.6 | 0.03 | 0.06 | 0.06 | 71 | 1008.1 |
| 20260902234539 | 59 | 216 | 17.4 | 26.1 | 0.05 | 0.05 | 0.05 | 68 | 1008.9 |
| 20260902233036 | 59 | 230 | 27.8 | 38.2 | 0.03 | 0.03 | 0.03 | 70 | 1008.2 |
| 20260902231540 | 59 | 206 | 22.6 | 33.9 | 0.03 | 0.03 | 0.03 | 70 | 1007.9 |
| 20260902230037 | 58 | 240 | 26.1 | 52.1 | 0.03 | 0.03 | 0.03 | 73 | 1007.1 |
| 20260902224534 | 76 | 223 | 20.9 | 35.6 | 0.00 | 0.00 | 0.00 | 32 | 1004.6 |
| 20260902223036 | 81 | 171 | 7.0 | 14.8 | 0.00 | 0.00 | 0.00 | 30 | 1003.2 |